• Em Portugal
  • Lista de países
  • Para 7 dias
  • Temperatura da água
  • Mapas de satélite
  • Mapa do tempo
  • Widgets de tempo
  • user-avatar
    Iniciar Sessão

    Previsão horária em Pokhara

    Hoje, 23 Fevereiro, Sexta-feira

    Tempo Temperatura Precipitação Vento Pressão Humidade
    00:00 +14°C° 0 mm 2 m/s 682 mmHg 58%
    01:00 +14°C° 0 mm 2 m/s 682 mmHg 58%
    02:00 +13°C° 0 mm 2 m/s 682 mmHg 59%
    03:00 +13°C° 0 mm 2 m/s 681 mmHg 59%
    04:00 +13°C° 0 mm 2 m/s 682 mmHg 59%
    05:00 +13°C° 0 mm 2 m/s 682 mmHg 58%
    06:00 +13°C° 0 mm 2 m/s 682 mmHg 57%
    07:00 +15°C° 0 mm 2 m/s 682 mmHg 54%
    08:00 +16°C° 0 mm 2 m/s 683 mmHg 50%
    09:00 +19°C° 0 mm 1 m/s 683 mmHg 47%
    10:00 +20°C° 0 mm 2 m/s 683 mmHg 46%
    11:00 +23°C° 0 mm 2 m/s 683 mmHg 45%
    12:00 +26°C° 0 mm 2 m/s 683 mmHg 44%
    13:00 +25°C° 0,3 mm 2 m/s 682 mmHg 47%
    14:00 +25°C° 0,3 mm 2 m/s 682 mmHg 49%
    15:00 +24°C° 0,3 mm 2 m/s 682 mmHg 51%
    16:00 +23°C° 0,2 mm 2 m/s 682 mmHg 55%
    17:00 +22°C° 0,2 mm 1 m/s 682 mmHg 59%
    18:00 +20°C° 0 mm 1 m/s 681 mmHg 63%
    19:00 +19°C° 0,1 mm 1 m/s 682 mmHg 64%
    20:00 +17°C° 0,1 mm 2 m/s 682 mmHg 64%
    21:00 +16°C° 0,1 mm 2 m/s 683 mmHg 65%
    22:00 +16°C° 0 mm 2 m/s 683 mmHg 62%
    23:00 +16°C° 0 mm 2 m/s 683 mmHg 58%

    Amanhã, 24 Fevereiro, Sábado

    Tempo Temperatura Precipitação Vento Pressão Humidade
    00:00 +15°C° 0 mm 2 m/s 683 mmHg 55%
    01:00 +15°C° 0 mm 2 m/s 683 mmHg 53%
    02:00 +15°C° 0 mm 2 m/s 683 mmHg 50%
    03:00 +15°C° 0 mm 2 m/s 683 mmHg 47%
    04:00 +15°C° 0 mm 2 m/s 683 mmHg 45%
    05:00 +15°C° 0 mm 2 m/s 683 mmHg 44%
    06:00 +14°C° 0 mm 2 m/s 683 mmHg 42%
    07:00 +16°C° 0 mm 2 m/s 684 mmHg 39%
    08:00 +20°C° 0 mm 1 m/s 685 mmHg 37%
    09:00 +22°C° 0 mm 1 m/s 685 mmHg 34%
    10:00 +23°C° 0 mm 1 m/s 686 mmHg 35%
    11:00 +25°C° 0 mm 2 m/s 686 mmHg 36%
    12:00 +26°C° 0 mm 2 m/s 686 mmHg 37%
    13:00 +26°C° 0,1 mm 3 m/s 685 mmHg 39%
    14:00 +26°C° 0,1 mm 3 m/s 685 mmHg 41%
    15:00 +26°C° 0,1 mm 3 m/s 684 mmHg 43%
    16:00 +24°C° 0,3 mm 2 m/s 684 mmHg 48%
    17:00 +23°C° 0,3 mm 2 m/s 684 mmHg 53%
    18:00 +21°C° 0,3 mm 1 m/s 684 mmHg 59%
    19:00 +20°C° 0,3 mm 1 m/s 685 mmHg 61%
    20:00 +19°C° 0,3 mm 1 m/s 685 mmHg 63%
    21:00 +18°C° 0,3 mm 1 m/s 685 mmHg 66%
    22:00 +17°C° 0,1 mm 2 m/s 685 mmHg 64%
    23:00 +16°C° 0,1 mm 2 m/s 685 mmHg 61%

    Depois de amanhã, 25 Fevereiro, Domingo

    Tempo Temperatura Precipitação Vento Pressão Humidade
    00:00 +16°C° 0,1 mm 2 m/s 685 mmHg 59%
    01:00 +16°C° 0 mm 2 m/s 685 mmHg 57%
    02:00 +16°C° 0 mm 2 m/s 685 mmHg 55%
    03:00 +16°C° 0 mm 2 m/s 685 mmHg 54%
    04:00 +16°C° 0,1 mm 2 m/s 685 mmHg 53%
    05:00 +16°C° 0,1 mm 2 m/s 684 mmHg 52%
    06:00 +16°C° 0,1 mm 1 m/s 684 mmHg 51%
    07:00 +18°C° 0,1 mm 1 m/s 685 mmHg 48%
    08:00 +20°C° 0,1 mm 1 m/s 686 mmHg 46%
    09:00 +21°C° 0,1 mm 1 m/s 687 mmHg 44%
    10:00 +22°C° 0,3 mm 1 m/s 687 mmHg 43%
    11:00 +24°C° 0,3 mm 2 m/s 686 mmHg 43%
    12:00 +25°C° 0,3 mm 2 m/s 686 mmHg 42%
    13:00 +25°C° 0,5 mm 2 m/s 685 mmHg 43%
    14:00 +25°C° 0,5 mm 2 m/s 685 mmHg 45%
    15:00 +25°C° 0,5 mm 2 m/s 684 mmHg 46%
    16:00 +23°C° 1 mm 2 m/s 683 mmHg 50%
    17:00 +21°C° 1 mm 2 m/s 683 mmHg 55%
    18:00 +20°C° 1 mm 1 m/s 683 mmHg 60%
    19:00 +18°C° 0,5 mm 2 m/s 683 mmHg 61%
    20:00 +17°C° 0,5 mm 2 m/s 683 mmHg 61%
    21:00 +16°C° 0,5 mm 2 m/s 684 mmHg 62%
    22:00 +15°C° 0 mm 2 m/s 683 mmHg 59%
    23:00 +15°C° 0 mm 2 m/s 683 mmHg 55%

    26 Fevereiro, Segunda-feira

    Tempo Temperatura Precipitação Vento Pressão Humidade
    00:00 +14°C° 0 mm 3 m/s 683 mmHg 52%
    01:00 +13°C° 0 mm 3 m/s 683 mmHg 49%
    02:00 +13°C° 0 mm 3 m/s 683 mmHg 45%
    03:00 +12°C° 0 mm 3 m/s 682 mmHg 42%
    04:00 +12°C° 0 mm 4 m/s 682 mmHg 40%
    05:00 +12°C° 0 mm 4 m/s 683 mmHg 39%
    06:00 +12°C° 0 mm 4 m/s 683 mmHg 37%
    07:00 +16°C° 0 mm 3 m/s 683 mmHg 37%
    08:00 +18°C° 0 mm 3 m/s 684 mmHg 36%
    09:00 +20°C° 0 mm 2 m/s 685 mmHg 36%
    10:00 +23°C° 0 mm 2 m/s 685 mmHg 33%
    11:00 +25°C° 0 mm 2 m/s 685 mmHg 30%
    12:00 +27°C° 0 mm 1 m/s 685 mmHg 28%
    13:00 +27°C° 0 mm 2 m/s 685 mmHg 29%
    14:00 +27°C° 0 mm 2 m/s 684 mmHg 29%
    15:00 +27°C° 0 mm 2 m/s 683 mmHg 30%
    16:00 +25°C° 0 mm 2 m/s 683 mmHg 35%
    17:00 +24°C° 0 mm 2 m/s 682 mmHg 40%
    18:00 +21°C° 0 mm 2 m/s 682 mmHg 45%
    19:00 +19°C° 0 mm 2 m/s 683 mmHg 42%
    20:00 +18°C° 0 mm 3 m/s 683 mmHg 39%
    21:00 +17°C° 0 mm 3 m/s 684 mmHg 36%
    22:00 +17°C° 0 mm 3 m/s 684 mmHg 34%
    23:00 +16°C° 0 mm 3 m/s 684 mmHg 33%

    27 Fevereiro, Terça-feira

    Tempo Temperatura Precipitação Vento Pressão Humidade
    00:00 +16°C° 0 mm 3 m/s 684 mmHg 31%
    01:00 +16°C° 0 mm 3 m/s 684 mmHg 30%
    02:00 +16°C° 0 mm 3 m/s 683 mmHg 28%
    03:00 +16°C° 0 mm 3 m/s 683 mmHg 27%
    04:00 +16°C° 0 mm 3 m/s 683 mmHg 25%
    05:00 +16°C° 0 mm 3 m/s 683 mmHg 23%
    06:00 +16°C° 0 mm 3 m/s 683 mmHg 22%
    07:00 +18°C° 0 mm 2 m/s 684 mmHg 23%
    08:00 +21°C° 0 mm 1 m/s 685 mmHg 25%
    09:00 +24°C° 0 mm 1 m/s 686 mmHg 26%
    10:00 +25°C° 0 mm 1 m/s 685 mmHg 27%
    11:00 +26°C° 0 mm 2 m/s 685 mmHg 28%
    12:00 +28°C° 0 mm 2 m/s 685 mmHg 29%
    13:00 +28°C° 0 mm 2 m/s 684 mmHg 32%
    14:00 +28°C° 0 mm 2 m/s 684 mmHg 34%
    15:00 +28°C° 0 mm 2 m/s 683 mmHg 37%
    16:00 +26°C° 0 mm 2 m/s 683 mmHg 43%
    17:00 +24°C° 0 mm 2 m/s 683 mmHg 50%
    18:00 +22°C° 0 mm 1 m/s 683 mmHg 56%
    19:00 +21°C° 0 mm 1 m/s 683 mmHg 55%
    20:00 +19°C° 0 mm 2 m/s 684 mmHg 53%
    21:00 +17°C° 0 mm 2 m/s 684 mmHg 51%
    22:00 +17°C° 0 mm 2 m/s 684 mmHg 48%
    23:00 +17°C° 0 mm 2 m/s 684 mmHg 44%

    28 Fevereiro, Quarta-feira

    Tempo Temperatura Precipitação Vento Pressão Humidade
    00:00 +17°C° 0 mm 2 m/s 683 mmHg 40%
    01:00 +17°C° 0 mm 2 m/s 683 mmHg 38%
    02:00 +17°C° 0 mm 2 m/s 683 mmHg 37%
    03:00 +17°C° 0 mm 2 m/s 682 mmHg 35%
    04:00 +16°C° 0 mm 2 m/s 682 mmHg 35%
    05:00 +16°C° 0 mm 2 m/s 683 mmHg 35%
    06:00 +16°C° 0 mm 2 m/s 683 mmHg 34%
    07:00 +18°C° 0 mm 2 m/s 683 mmHg 33%
    08:00 +22°C° 0 mm 1 m/s 684 mmHg 32%
    09:00 +22°C° 0 mm 0 m/s 685 mmHg 31%
    10:00 +25°C° 0 mm 1 m/s 685 mmHg 31%
    11:00 +27°C° 0 mm 2 m/s 685 mmHg 32%
    12:00 +28°C° 0 mm 2 m/s 684 mmHg 32%
    13:00 +28°C° 0 mm 2 m/s 684 mmHg 34%
    14:00 +28°C° 0 mm 2 m/s 683 mmHg 36%
    15:00 +28°C° 0 mm 3 m/s 682 mmHg 38%
    16:00 +26°C° 0,1 mm 2 m/s 682 mmHg 44%
    17:00 +24°C° 0,1 mm 2 m/s 682 mmHg 50%
    18:00 +23°C° 0,1 mm 1 m/s 682 mmHg 56%
    19:00 +21°C° 0,1 mm 1 m/s 682 mmHg 57%
    20:00 +19°C° 0,1 mm 2 m/s 682 mmHg 58%
    21:00 +18°C° 0,1 mm 2 m/s 683 mmHg 60%
    22:00 +17°C° 0 mm 2 m/s 683 mmHg 57%
    23:00 +17°C° 0 mm 2 m/s 682 mmHg 54%
    Mostrar mais